Time,TemperatureF,DewpointF,PressureIn,WindDirection,WindDirectionDegrees,WindSpeedMPH,WindSpeedGustMPH,Humidity,HourlyPrecipIn,Conditions,Clouds,dailyrainin,SoftwareType,DateUTC
2013-04-21 00:10:00,36.2,27.0,30.42,NE,43,0.0,2.0,70,0.00,,,0.00,weatherlink.com 1.10,2013-04-21 04:10:00,
2013-04-21 00:25:00,36.3,27.0,30.43,NE,52,4.0,4.0,70,0.00,,,0.00,weatherlink.com 1.10,2013-04-21 04:25:00,
2013-04-21 00:40:00,36.7,26.0,30.43,NE,53,3.0,7.0,65,0.00,,,0.00,weatherlink.com 1.10,2013-04-21 04:40:00,
2013-04-21 00:55:00,36.5,25.0,30.43,East,80,4.0,9.0,64,0.00,,,0.00,weatherlink.com 1.10,2013-04-21 04:55:00,
2013-04-21 01:10:00,36.2,25.0,30.43,ENE,66,4.0,7.0,64,0.00,,,0.00,weatherlink.com 1.10,2013-04-21 05:10:00,
2013-04-21 01:25:00,36.0,25.0,30.44,ENE,68,6.0,12.0,64,0.00,,,0.00,weatherlink.com 1.10,2013-04-21 05:25:00,
2013-04-21 01:40:00,35.8,24.0,30.44,ENE,70,6.0,9.0,63,0.00,,,0.00,weatherlink.com 1.10,2013-04-21 05:40:00,
2013-04-21 01:55:00,35.3,24.0,30.45,ENE,77,3.0,7.0,64,0.00,,,0.00,weatherlink.com 1.10,2013-04-21 05:55:00,
2013-04-21 02:10:00,34.9,25.0,30.45,East,94,6.0,9.0,66,0.00,,,0.00,weatherlink.com 1.10,2013-04-21 06:10:00,
2013-04-21 02:25:00,34.5,25.0,30.45,ESE,107,4.0,6.0,67,0.00,,,0.00,weatherlink.com 1.10,2013-04-21 06:25:00,
2013-04-21 02:40:00,34.3,24.0,30.45,East,83,7.0,9.0,65,0.00,,,0.00,weatherlink.com 1.10,2013-04-21 06:40:00,
2013-04-21 02:55:00,34.0,24.0,30.45,East,99,4.0,9.0,66,0.00,,,0.00,weatherlink.com 1.10,2013-04-21 06:55:00,
2013-04-21 03:10:00,33.5,23.0,30.45,East,90,6.0,6.0,66,0.00,,,0.00,weatherlink.com 1.10,2013-04-21 07:10:00,
2013-04-21 03:25:00,33.1,23.0,30.45,East,89,5.0,7.0,67,0.00,,,0.00,weatherlink.com 1.10,2013-04-21 07:25:00,
2013-04-21 03:40:00,32.9,23.0,30.45,ESE,109,3.0,6.0,68,0.00,,,0.00,weatherlink.com 1.10,2013-04-21 07:40:00,
2013-04-21 03:55:00,32.8,23.0,30.45,East,84,4.0,8.0,66,0.00,,,0.00,weatherlink.com 1.10,2013-04-21 07:55:00,
2013-04-21 04:11:00,32.6,22.0,30.45,ESE,105,6.0,6.0,66,0.00,,,0.00,weatherlink.com 1.10,2013-04-21 08:11:00,
2013-04-21 04:26:00,32.4,23.0,30.45,ENE,77,6.0,6.0,67,0.00,,,0.00,weatherlink.com 1.10,2013-04-21 08:26:00,
2013-04-21 04:41:00,32.2,23.0,30.46,East,95,2.0,5.0,68,0.00,,,0.00,weatherlink.com 1.10,2013-04-21 08:41:00,
2013-04-21 04:56:00,32.2,22.0,30.47,East,86,3.0,6.0,67,0.00,,,0.00,weatherlink.com 1.10,2013-04-21 08:56:00,
2013-04-21 05:11:00,31.8,22.0,30.47,East,98,5.0,5.0,68,0.00,,,0.00,weatherlink.com 1.10,2013-04-21 09:11:00,
2013-04-21 05:26:00,31.7,23.0,30.47,ESE,109,2.0,4.0,69,0.00,,,0.00,weatherlink.com 1.10,2013-04-21 09:26:00,
2013-04-21 05:41:00,31.6,22.0,30.48,East,93,2.0,5.0,68,0.00,,,0.00,weatherlink.com 1.10,2013-04-21 09:41:00,
2013-04-21 05:56:00,31.4,22.0,30.48,East,79,2.0,5.0,69,0.00,,,0.00,weatherlink.com 1.10,2013-04-21 09:56:00,
2013-04-21 06:11:00,31.2,22.0,30.48,East,89,3.0,4.0,69,0.00,,,0.00,weatherlink.com 1.10,2013-04-21 10:11:00,
2013-04-21 06:26:00,31.2,22.0,30.49,East,93,3.0,6.0,70,0.00,,,0.00,weatherlink.com 1.10,2013-04-21 10:26:00,
2013-04-21 06:41:00,31.1,22.0,30.50,East,91,3.0,4.0,70,0.00,,,0.00,weatherlink.com 1.10,2013-04-21 10:41:00,
2013-04-21 06:56:00,31.0,22.0,30.50,East,84,3.0,4.0,70,0.00,,,0.00,weatherlink.com 1.10,2013-04-21 10:56:00,
2013-04-21 07:11:00,31.1,22.0,30.51,ENE,78,2.0,4.0,70,0.00,,,0.00,weatherlink.com 1.10,2013-04-21 11:11:00,
2013-04-21 07:26:00,31.5,23.0,30.51,ESE,116,3.0,6.0,70,0.00,,,0.00,weatherlink.com 1.10,2013-04-21 11:26:00,
2013-04-21 07:41:00,31.8,23.0,30.52,East,87,2.0,4.0,70,0.00,,,0.00,weatherlink.com 1.10,2013-04-21 11:41:00,
2013-04-21 07:56:00,32.0,23.0,30.53,East,100,2.0,5.0,70,0.00,,,0.00,weatherlink.com 1.10,2013-04-21 11:56:00,
2013-04-21 08:11:00,32.5,23.0,30.53,ESE,113,3.0,5.0,68,0.00,,,0.00,weatherlink.com 1.10,2013-04-21 12:11:00,
2013-04-21 08:26:00,33.5,24.0,30.54,SE,131,3.0,6.0,68,0.00,,,0.00,weatherlink.com 1.10,2013-04-21 12:26:00,
2013-04-21 08:41:00,34.1,23.0,30.54,East,98,5.0,8.0,65,0.00,,,0.00,weatherlink.com 1.10,2013-04-21 12:41:00,
2013-04-21 08:56:00,34.8,24.0,30.54,ESE,121,6.0,12.0,64,0.00,,,0.00,weatherlink.com 1.10,2013-04-21 12:56:00,
2013-04-21 09:11:00,35.9,23.0,30.54,SE,126,6.0,9.0,61,0.00,,,0.00,weatherlink.com 1.10,2013-04-21 13:11:00,
2013-04-21 09:26:00,37.1,25.0,30.54,ESE,118,6.0,10.0,62,0.00,,,0.00,weatherlink.com 1.10,2013-04-21 13:26:00,
2013-04-21 09:41:00,37.7,24.0,30.55,ESE,108,6.0,11.0,58,0.00,,,0.00,weatherlink.com 1.10,2013-04-21 13:41:00,
2013-04-21 09:56:00,38.7,24.0,30.55,East,89,8.0,12.0,56,0.00,,,0.00,weatherlink.com 1.10,2013-04-21 13:56:00,
2013-04-21 10:11:00,39.7,23.0,30.54,SE,134,6.0,14.0,52,0.00,,,0.00,weatherlink.com 1.10,2013-04-21 14:11:00,
2013-04-21 10:26:00,39.8,22.0,30.55,ESE,113,9.0,13.0,50,0.00,,,0.00,weatherlink.com 1.10,2013-04-21 14:26:00,
2013-04-21 10:41:00,40.8,22.0,30.55,ESE,114,9.0,14.0,47,0.00,,,0.00,weatherlink.com 1.10,2013-04-21 14:41:00,
2013-04-21 10:56:00,41.7,24.0,30.55,SSE,166,9.0,14.0,49,0.00,,,0.00,weatherlink.com 1.10,2013-04-21 14:56:00,
2013-04-21 11:11:00,42.0,23.0,30.54,SE,140,7.0,16.0,48,0.00,,,0.00,weatherlink.com 1.10,2013-04-21 15:11:00,
2013-04-21 11:27:00,42.3,23.0,30.54,SE,135,12.0,15.0,47,0.00,,,0.00,weatherlink.com 1.10,2013-04-21 15:27:00,
2013-04-21 11:42:00,42.5,24.0,30.54,SE,145,6.0,14.0,48,0.00,,,0.00,weatherlink.com 1.10,2013-04-21 15:42:00,
2013-04-21 11:57:00,43.0,24.0,30.54,SE,139,13.0,14.0,48,0.00,,,0.00,weatherlink.com 1.10,2013-04-21 15:57:00,
2013-04-21 12:12:00,43.3,25.0,30.54,ESE,118,9.0,13.0,49,0.00,,,0.00,weatherlink.com 1.10,2013-04-21 16:12:00,
2013-04-21 12:27:00,43.9,25.0,30.53,SE,134,9.0,13.0,48,0.00,,,0.00,weatherlink.com 1.10,2013-04-21 16:27:00,
2013-04-21 12:42:00,44.7,24.0,30.52,ESE,103,9.0,12.0,44,0.00,,,0.00,weatherlink.com 1.10,2013-04-21 16:42:00,
2013-04-21 12:57:00,45.3,25.0,30.51,East,100,4.0,14.0,46,0.00,,,0.00,weatherlink.com 1.10,2013-04-21 16:57:00,
2013-04-21 13:12:00,45.8,26.0,30.51,ESE,113,10.0,13.0,46,0.00,,,0.00,weatherlink.com 1.10,2013-04-21 17:12:00,
2013-04-21 13:27:00,46.7,27.0,30.50,East,86,9.0,12.0,47,0.00,,,0.00,weatherlink.com 1.10,2013-04-21 17:27:00,
2013-04-21 13:42:00,46.9,26.0,30.49,SSE,155,12.0,15.0,45,0.00,,,0.00,weatherlink.com 1.10,2013-04-21 17:42:00,
2013-04-21 13:57:00,47.5,27.0,30.49,SE,141,10.0,11.0,46,0.00,,,0.00,weatherlink.com 1.10,2013-04-21 17:57:00,
2013-04-21 14:12:00,47.5,27.0,30.48,SSE,158,3.0,13.0,45,0.00,,,0.00,weatherlink.com 1.10,2013-04-21 18:12:00,
2013-04-21 14:27:00,47.9,25.0,30.47,ESE,108,7.0,14.0,41,0.00,,,0.00,weatherlink.com 1.10,2013-04-21 18:27:00,
2013-04-21 14:42:00,48.7,29.0,30.46,ESE,104,6.0,11.0,46,0.00,,,0.00,weatherlink.com 1.10,2013-04-21 18:42:00,
2013-04-21 14:57:00,48.8,27.0,30.46,SSE,149,10.0,13.0,43,0.00,,,0.00,weatherlink.com 1.10,2013-04-21 18:57:00,
2013-04-21 15:12:00,49.5,28.0,30.45,ESE,122,9.0,18.0,44,0.00,,,0.00,weatherlink.com 1.10,2013-04-21 19:12:00,
2013-04-21 15:27:00,49.7,27.0,30.45,East,79,8.0,12.0,42,0.00,,,0.00,weatherlink.com 1.10,2013-04-21 19:27:00,
2013-04-21 15:42:00,50.6,28.0,30.43,East,95,8.0,14.0,42,0.00,,,0.00,weatherlink.com 1.10,2013-04-21 19:42:00,
2013-04-21 15:57:00,50.5,29.0,30.43,East,80,9.0,12.0,43,0.00,,,0.00,weatherlink.com 1.10,2013-04-21 19:57:00,
2013-04-21 16:12:00,51.1,30.0,30.42,East,100,4.0,11.0,44,0.00,,,0.00,weatherlink.com 1.10,2013-04-21 20:12:00,
2013-04-21 16:27:00,51.9,30.0,30.41,SSE,152,11.0,13.0,43,0.00,,,0.00,weatherlink.com 1.10,2013-04-21 20:27:00,
2013-04-21 16:42:00,51.6,28.0,30.40,East,80,3.0,14.0,41,0.00,,,0.00,weatherlink.com 1.10,2013-04-21 20:42:00,
2013-04-21 16:57:00,52.1,29.0,30.40,ESE,118,9.0,11.0,42,0.00,,,0.00,weatherlink.com 1.10,2013-04-21 20:57:00,
2013-04-21 17:12:00,52.2,28.0,30.39,South,181,7.0,11.0,39,0.00,,,0.00,weatherlink.com 1.10,2013-04-21 21:12:00,
2013-04-21 17:27:00,52.5,28.0,30.39,SE,133,7.0,13.0,39,0.00,,,0.00,weatherlink.com 1.10,2013-04-21 21:27:00,
2013-04-21 17:42:00,53.2,28.0,30.39,SE,129,10.0,12.0,38,0.00,,,0.00,weatherlink.com 1.10,2013-04-21 21:42:00,
2013-04-21 17:57:00,53.2,29.0,30.39,East,94,12.0,13.0,39,0.00,,,0.00,weatherlink.com 1.10,2013-04-21 21:57:00,
2013-04-21 18:12:00,52.8,28.0,30.39,SE,131,5.0,13.0,38,0.00,,,0.00,weatherlink.com 1.10,2013-04-21 22:12:00,
2013-04-21 18:27:00,52.8,28.0,30.38,ESE,103,4.0,13.0,39,0.00,,,0.00,weatherlink.com 1.10,2013-04-21 22:27:00,
2013-04-21 18:42:00,52.9,29.0,30.38,ESE,120,8.0,13.0,40,0.00,,,0.00,weatherlink.com 1.10,2013-04-21 22:42:00,
2013-04-21 18:58:00,52.4,29.0,30.39,ESE,109,5.0,10.0,41,0.00,,,0.00,weatherlink.com 1.10,2013-04-21 22:58:00,
2013-04-21 19:13:00,52.4,29.0,30.38,East,96,6.0,9.0,41,0.00,,,0.00,weatherlink.com 1.10,2013-04-21 23:13:00,
2013-04-21 19:28:00,52.2,30.0,30.39,East,96,7.0,10.0,42,0.00,,,0.00,weatherlink.com 1.10,2013-04-21 23:28:00,
2013-04-21 19:43:00,52.0,30.0,30.39,East,84,8.0,12.0,43,0.00,,,0.00,weatherlink.com 1.10,2013-04-21 23:43:00,
2013-04-21 19:58:00,51.6,30.0,30.39,SE,127,6.0,12.0,43,0.00,,,0.00,weatherlink.com 1.10,2013-04-21 23:58:00,
2013-04-21 20:13:00,51.1,30.0,30.38,East,96,7.0,7.0,44,0.00,,,0.00,weatherlink.com 1.10,2013-04-22 00:13:00,
2013-04-21 20:28:00,50.4,30.0,30.38,ESE,115,4.0,7.0,46,0.00,,,0.00,weatherlink.com 1.10,2013-04-22 00:28:00,
2013-04-21 20:43:00,49.7,30.0,30.39,ESE,110,6.0,8.0,47,0.00,,,0.00,weatherlink.com 1.10,2013-04-22 00:43:00,
2013-04-21 20:58:00,49.4,30.0,30.39,ESE,105,4.0,7.0,47,0.00,,,0.00,weatherlink.com 1.10,2013-04-22 00:58:00,
2013-04-21 21:13:00,48.9,30.0,30.39,ESE,105,3.0,7.0,48,0.00,,,0.00,weatherlink.com 1.10,2013-04-22 01:13:00,
2013-04-21 21:28:00,48.4,29.0,30.39,East,101,3.0,6.0,48,0.00,,,0.00,weatherlink.com 1.10,2013-04-22 01:28:00,
2013-04-21 21:43:00,48.1,30.0,30.39,SE,131,3.0,5.0,49,0.00,,,0.00,weatherlink.com 1.10,2013-04-22 01:43:00,
2013-04-21 21:58:00,47.7,29.0,30.39,ESE,108,6.0,7.0,48,0.00,,,0.00,weatherlink.com 1.10,2013-04-22 01:58:00,
2013-04-21 22:13:00,47.2,29.0,30.40,East,99,4.0,6.0,50,0.00,,,0.00,weatherlink.com 1.10,2013-04-22 02:13:00,
2013-04-21 22:28:00,46.8,29.0,30.40,East,91,3.0,5.0,50,0.00,,,0.00,weatherlink.com 1.10,2013-04-22 02:28:00,
2013-04-21 22:43:00,46.5,29.0,30.39,ESE,108,5.0,6.0,50,0.00,,,0.00,weatherlink.com 1.10,2013-04-22 02:43:00,
2013-04-21 22:58:00,46.1,29.0,30.39,ESE,107,5.0,5.0,51,0.00,,,0.00,weatherlink.com 1.10,2013-04-22 02:58:00,
2013-04-21 23:13:00,45.7,29.0,30.38,East,101,3.0,8.0,53,0.00,,,0.00,weatherlink.com 1.10,2013-04-22 03:13:00,
2013-04-21 23:28:00,45.5,30.0,30.38,ESE,106,6.0,7.0,54,0.00,,,0.00,weatherlink.com 1.10,2013-04-22 03:28:00,
2013-04-21 23:43:00,45.3,29.0,30.38,ESE,117,5.0,9.0,54,0.00,,,0.00,weatherlink.com 1.10,2013-04-22 03:43:00,
2013-04-21 23:58:00,45.0,30.0,30.38,ESE,117,7.0,8.0,55,0.00,,,0.00,weatherlink.com 1.10,2013-04-22 03:58:00,